Location: Caltech
(34.1382°N, 118.1253°W)
Time: 22:04:43
(UTC-07:00)

NOSS 3-2 (A) - Visible Passes

Search period start: 29 June 2016 00:00
Search period end: 09 July 2016 00:00
Orbit: 901 x 1308 km, 63.4° (Epoch: 24 June)

Date Brightness Start Highest point End Pass type
(mag) Time Alt. Az. Time Alt. Az. Time Alt. Az.
29 Jun 5.5 00:16:59 10° N 00:23:15 28° NE 00:27:48 17° E visible
29 Jun 3.9 02:07:06 10° NW 02:14:42 68° WSW 02:15:07 67° SW visible
29 Jun 5.9 23:32:20 10° N 23:37:20 19° NE 23:42:32 10° E visible
30 Jun 4.0 01:21:41 10° NNW 01:29:21 80° ENE 01:30:20 69° ESE visible
30 Jun 5.5 03:14:26 10° WNW 03:17:40 18° W 03:17:40 18° W visible
30 Jun 6.2 22:48:20 10° NNE 22:51:12 12° NE 22:54:09 10° ENE visible
01 Jul 4.5 00:36:29 10° NNW 00:43:52 52° NE 00:45:41 44° E visible
01 Jul 5.0 02:27:53 10° NW 02:33:01 30° W 02:33:01 30° W visible
01 Jul 5.1 23:51:28 10° NNW 23:58:13 34° NE 00:01:08 27° E visible
02 Jul 4.3 01:41:59 10° NW 01:48:28 51° W 01:48:28 51° W visible
02 Jul 5.6 23:06:40 10° N 23:12:24 23° NE 23:16:40 15° E visible
03 Jul 3.9 00:56:26 10° NNW 01:04:01 83° WSW 01:04:01 83° WSW visible
03 Jul 5.9 02:50:28 10° WNW 02:51:22 12° W 02:51:22 12° W visible
03 Jul 6.0 22:22:14 10° N 22:26:24 15° NE 22:30:42 10° ENE visible
04 Jul 4.1 00:11:07 10° NNW 00:18:42 65° ENE 00:19:38 61° E visible
04 Jul 5.4 02:03:09 10° WNW 02:06:59 22° W 02:06:59 22° W visible
04 Jul 6.3 21:39:47 10° NNE 21:40:10 10° NNE 21:40:32 10° NE visible
04 Jul 4.7 23:26:00 10° NNW 23:33:08 43° NE 23:35:20 36° E visible
05 Jul 4.8 01:16:58 10° NW 01:22:41 38° W 01:22:41 38° W visible
05 Jul 5.3 22:41:05 10° N 22:47:25 28° NE 22:51:04 20° E visible
06 Jul 4.1 00:31:15 10° NW 00:38:26 65° W 00:38:26 65° W visible
06 Jul 5.7 21:56:25 10° N 22:01:31 19° NE 22:06:50 10° E visible
06 Jul 3.9 23:45:49 10° NNW 23:53:29 82° ENE 23:54:14 74° ESE visible
07 Jul 5.7 01:38:43 10° WNW 01:41:37 17° W 01:41:37 17° W visible
07 Jul 6.0 21:12:20 10° N 21:15:24 13° NE 21:18:33 10° ENE visible
07 Jul 4.4 23:00:36 10° NNW 23:08:01 54° NE 23:10:06 43° E visible
08 Jul 5.1 00:52:05 10° NW 00:57:28 30° W 00:57:28 30° W visible
08 Jul 4.9 22:15:34 10° NNW 22:22:23 35° NE 22:26:00 24° E visible
